Terminal Aerodrome Forecast
Issued by NWS

Home | Current Version | Previous Version | Text Only | Print | Product List | Glossary Off
Versions: 1 2 3 4 5 6 7 8 9 10 11 12 13 14 15 16 17

000
FTUS43 KABR 272000 AAA
TAFATY
TAF AMD
KATY 272052Z 2721/2818 33013KT P6SM OVC024
     FM272200 35018G25KT P6SM SCT024
     FM280200 35007KT P6SM SKC=

USA.gov is the U.S. government's official web portal to all federal, state and local government web resources and services.